Location: *
(40.7873°S, 98.7174°E)
Time: 23:16:15
(UTC+00:00)

Cosmos 1153 Rocket - Pass Details

Date: 15 October 2022
Orbit: 953 x 1007 km, 82.9° (Epoch: 09 December)

Event Time Altitude Azimuth Distance (km) Brightness Sun altitude
Rises 18:38:50 0° 189° (S) 3,671 8.2 -36.5°
Reaches altitude 10° 18:41:22 10° 190° (S) 2,715 7.3 -36.3°
Enters shadow 18:45:03 38° 195° (SSW) 1,426 5.5 -35.9°
